Location: Altavilla Irpina
(41.0000°N, 14.7833°E)
Time: 07:09:09
(UTC+00:00)

Alouette 2 Rocket - Pass Details

Date: 19 May 2025
Orbit: 501 x 2618 km, 79.8° (Epoch: 22 June)

Event Time Altitude Azimuth Distance (km) Brightness Sun altitude
Rises 19:53:21 0° 341° (NNW) 2,630 8.0 -15.6°
Reaches altitude 10° 19:55:19 10° 334° (NNW) 1,797 7.1 -15.8°
Maximum altitude 19:58:57 45° 261° (W) 840 4.5 -16.3°
Enters shadow 20:03:14 12° 190° (S) 2,168 6.0 -16.9°
